[[{"header":{"parameterUnit":"m.s-1","parameterCategory":1,"la1":30.2991,"la2":30.254,"lo1":-89.0895,"lo2":-89.0444,"dy":0.0017,"dx":0.0017,"nx":28,"ny":28,"refTime":"2024-06-04T09:00:00:Z","depth":0,"parameterNumber":2,"parameterNumberName":"U-component_of_WINDS"},"data":[0,0,0,0,0,0,0,0,0,0,0,0,0,0,0,0,0,0,0,0,0,0,0,0,0,0,0,0,0,0,0,0,0,0,0,0,0,0,0,0,0,0,0,0,0,0,0,0,0,0,0,0,0,0,0,0,0,0,-1.2801,-1.2801,0,-1.2844,-1.2844,-1.2845,-1.285,-1.285,-1.2849,-1.2849,-1.2894,-1.2896,-1.2897,0,0,0,0,0,0,0,0,0,0,0,0,0,-1.2726,-1.2727,-1.28,-1.2801,-1.2802,-1.2844,-1.2844,-1.2845,-1.285,-1.285,-1.2849,-1.2849,-1.2894,-1.2896,-1.2898,0,0,0,0,0,0,0,0,0,0,0,0,0,-1.2762,-1.2727,-1.28,-1.2809,-1.2811,-1.2843,-1.2844,-1.2845,-1.285,-1.285,-1.2849,-1.2849,-1.2893,-1.2896,-1.2898,-1.2925,0,0,-1.2905,-1.2906,0,0,0,0,0,0,0,0,-1.276,-1.2765,-1.2808,-1.2809,-1.281,-1.2841,-1.2834,-1.2872,-1.2851,-1.2835,-1.2849,-1.2848,-1.2877,-1.2881,-1.289,-1.2927,-1.2929,-1.2905,-1.2907,-1.2908,-1.2909,0,0,0,0,0,0,0,-1.2758,-1.2763,-1.2818,-1.2808,-1.281,-1.2812,-1.2817,-1.2841,-1.2859,-1.2837,-1.2837,-1.2842,-1.2878,-1.2888,-1.2891,-1.293,-1.2905,-1.2907,-1.2909,-1.291,-1.2992,-1.2993,0,0,0,0,0,0,-1.2753,-1.2761,-1.2816,-1.2819,-1.2783,-1.2814,-1.2819,-1.2832,-1.2859,-1.2863,-1.2843,-1.2842,-1.2884,-1.2889,-1.2893,-1.2927,-1.2908,-1.291,-1.2911,-1.2992,-1.2993,-1.2993,0,0,0,0,0,0,-1.2752,-1.2758,-1.2814,-1.279,-1.2798,-1.2816,-1.283,-1.2833,-1.2843,-1.2863,-1.2867,-1.285,-1.2884,-1.289,-1.2917,-1.2929,-1.2911,-1.2913,-1.2991,-1.2992,-1.2993,-1.2995,0,0,0,0,0,0,-1.2749,-1.2757,-1.2767,-1.279,-1.2799,-1.2837,-1.2831,-1.2834,-1.2847,-1.2847,-1.2871,-1.2874,-1.2884,-1.2914,-1.292,-1.2932,-1.2915,-1.299,-1.2991,-1.2993,-1.2994,-1.2996,-1.2998,0,0,0,0,0,-1.2747,-1.2766,-1.2768,-1.2774,-1.2811,-1.2838,-1.2843,-1.2853,-1.2848,-1.2858,-1.2872,-1.2874,-1.2927,-1.2916,-1.2923,-1.2936,-1.2989,-1.2991,-1.2993,-1.2993,-1.2995,-1.2998,0,0,0,0,0,0,-1.2744,-1.2769,-1.2771,-1.2799,-1.2816,-1.2839,-1.2852,-1.2855,-1.2875,-1.2874,-1.2886,-1.2892,-1.2919,-1.293,-1.2918,-1.2964,-1.2958,-1.2961,-1.2956,-1.2958,-1.296,-1.2956,-1.2917,0,0,0,0,0,-1.2747,-1.2765,-1.2787,-1.2809,-1.2818,-1.2833,-1.2845,-1.2852,-1.287,-1.2878,-1.2893,-1.2912,-1.2933,-1.2946,-1.2967,-1.2996,-1.3002,-1.3008,-1.301,-1.3012,-1.3014,-1.3031,-1.3035,-1.2999,-1.2999,-1.2999,0,0,-1.2752,-1.2768,-1.2779,-1.2809,-1.2823,-1.2843,-1.2839,-1.286,-1.2875,-1.2881,-1.2908,-1.292,-1.2942,-1.2971,-1.2984,-1.2981,-1.3025,-1.3014,-1.3015,-1.3017,-1.3033,-1.3037,-1.304,-1.3,-1.3,-1.3,0,0,-1.2772,-1.2786,-1.2806,-1.2821,-1.2842,-1.2853,-1.2858,-1.2881,-1.2889,-1.2916,-1.2921,-1.294,-1.2975,-1.2991,-1.3003,-1.3031,-1.3034,-1.3038,-1.3047,-1.3064,-1.3067,-1.3069,-1.3079,-1.3083,-1.304,-1.304,-1.304,0,-1.2777,-1.2806,-1.2817,-1.2837,-1.2851,-1.2857,-1.2878,-1.2892,-1.2919,-1.2928,-1.2925,-1.2971,-1.2986,-1.3018,-1.3025,-1.3035,-1.3042,-1.3034,-1.3065,-1.3068,-1.307,-1.308,-1.3084,-1.304,-1.304,-1.304,-1.304,0,-1.281,-1.2831,-1.2845,-1.287,-1.2885,-1.2906,-1.2921,-1.2935,-1.2941,-1.2952,-1.298,-1.2999,-1.3023,-1.3032,-1.3038,-1.3066,-1.3063,-1.3063,-1.3056,-1.3074,-1.3083,-1.3087,-1.3041,-1.3041,-1.304,-1.304,0,0,-1.2829,-1.2861,-1.2866,-1.2878,-1.2903,-1.2919,-1.2941,-1.2965,-1.2977,-1.2996,-1.3015,-1.3046,-1.3046,-1.306,-1.3068,-1.3082,-1.3104,-1.308,-1.3081,-1.3083,-1.3136,-1.3136,-1.3141,-1.3106,-1.3107,-1.3107,-1.3134,0,-1.2851,-1.2889,-1.29,-1.2933,-1.2952,-1.2959,-1.2978,-1.2996,-1.3008,-1.3027,-1.304,-1.3062,-1.306,-1.3068,-1.3083,-1.3098,-1.3114,-1.3096,-1.3124,-1.3125,-1.3118,-1.3145,-1.3146,-1.317,-1.3138,-1.3139,-1.3139,0,-1.2883,-1.2902,-1.2936,-1.2959,-1.2968,-1.2985,-1.3008,-1.3026,-1.3047,-1.3055,-1.3071,-1.3078,-1.3102,-1.3095,-1.3129,-1.3116,-1.3129,-1.3138,-1.3139,-1.3142,-1.3133,-1.3148,-1.3178,-1.3182,-1.3145,-1.3145,-1.3144,0,-1.2893,-1.2928,-1.2953,-1.2963,-1.2991,-1.3002,-1.3015,-1.3035,-1.3049,-1.307,-1.3079,-1.3103,-1.3116,-1.3134,-1.3148,-1.3141,-1.3181,-1.3174,-1.3188,-1.3188,-1.3195,-1.3194,-1.3227,-1.3204,-1.3204,-1.3204,-1.3204,0,-1.2917,-1.2937,-1.2957,-1.2973,-1.2997,-1.301,-1.3033,-1.3046,-1.3064,-1.3083,-1.3091,-1.3109,-1.3126,-1.3146,-1.3157,-1.3184,-1.319,-1.3197,-1.3199,-1.3196,-1.3195,-1.3204,-1.3202,-1.3205,-1.3205,-1.3204,-1.3204,0,-1.2931,-1.2946,-1.2973,-1.2998,-1.3004,-1.3021,-1.3042,-1.3058,-1.307,-1.3094,-1.31,-1.312,-1.3144,-1.316,-1.3191,-1.3199,-1.3228,-1.323,-1.322,-1.3221,-1.3234,-1.3233,-1.3273,-1.3279,-1.3252,-1.3253,-1.3253,0,-1.2945,-1.2961,-1.2987,-1.3,-1.3012,-1.3033,-1.3047,-1.3061,-1.3076,-1.3102,-1.3115,-1.314,-1.316,-1.3199,-1.3217,-1.3241,-1.3244,-1.3256,-1.3247,-1.3244,-1.3244,-1.3243,-1.3245,-1.3257,-1.3258,-1.3258,-1.3258,0,-1.2969,-1.2976,-1.2995,-1.3018,-1.3035,-1.3053,-1.3072,-1.3083,-1.31,-1.3117,-1.3141,-1.3157,-1.3189,-1.3214,-1.324,-1.3254,-1.3259,-1.3261,-1.3265,-1.3262,-1.3255,-1.3259,-1.3224,-1.326,-1.326,-1.3259,-1.3259,-1.3259,-1.2984,-1.2999,-1.3019,-1.3041,-1.3057,-1.3075,-1.3091,-1.3105,-1.3126,-1.3152,-1.316,-1.3186,-1.3208,-1.3244,-1.3258,-1.3279,-1.3278,-1.3284,-1.3286,-1.3287,-1.3287,-1.3252,-1.3284,-1.3284,-1.3284,-1.3284,-1.3284,0,-1.3008,-1.3022,-1.3042,-1.3068,-1.3086,-1.3089,-1.311,-1.3125,-1.3148,-1.3167,-1.3187,-1.3217,-1.3241,-1.3261,-1.3286,-1.33,-1.3303,-1.3306,-1.3305,-1.3308,-1.3287,-1.328,-1.3303,-1.3303,-1.3303,-1.3303,-1.3303,-1.3303,-1.3023,-1.3048,-1.3057,-1.3091,-1.3105,-1.3129,-1.3141,-1.3158,-1.3174,-1.3206,-1.3226,-1.3239,-1.3259,-1.3286,-1.3309,-1.3314,-1.3323,-1.3326,-1.3332,-1.3312,-1.3309,-1.3307,-1.3301,-1.3328,-1.3328,-1.3351,-1.3351,-1.3352]},{"header":{"parameterUnit":"m.s-1","parameterCategory":1,"la1":30.2991,"la2":30.254,"lo1":-89.0895,"lo2":-89.0444,"dy":0.0017,"dx":0.0017,"nx":28,"ny":28,"refTime":"2024-06-04T09:00:00:Z","depth":0,"parameterNumber":3,"parameterNumberName":"V-component_of_WINDS"},"data":[0,0,0,0,0,0,0,0,0,0,0,0,0,0,0,0,0,0,0,0,0,0,0,0,0,0,0,0,0,0,0,0,0,0,0,0,0,0,0,0,0,0,0,0,0,0,0,0,0,0,0,0,0,0,0,0,0,0,5.4838,5.4838,0,5.4837,5.4837,5.4837,5.4814,5.4813,5.4812,5.4812,5.4808,5.4808,5.4809,0,0,0,0,0,0,0,0,0,0,0,0,0,5.4817,5.4818,5.4838,5.4838,5.4838,5.4837,5.4837,5.4837,5.4814,5.4813,5.4812,5.4812,5.4808,5.4808,5.4809,0,0,0,0,0,0,0,0,0,0,0,0,0,5.4822,5.4818,5.4838,5.4826,5.4825,5.4837,5.4837,5.4837,5.4814,5.4813,5.4812,5.4811,5.4808,5.4808,5.4809,5.4831,0,0,5.4811,5.4811,0,0,0,0,0,0,0,0,5.4822,5.4823,5.4828,5.4827,5.4826,5.4825,5.4828,5.4835,5.4814,5.4818,5.4812,5.4811,5.4814,5.4814,5.4816,5.4831,5.483,5.4811,5.4811,5.4812,5.4812,0,0,0,0,0,0,0,5.4822,5.4823,5.4837,5.4828,5.4827,5.482,5.482,5.4829,5.4821,5.4818,5.4816,5.4816,5.4813,5.4815,5.4815,5.483,5.4811,5.4812,5.4812,5.4812,5.4865,5.4866,0,0,0,0,0,0,5.4823,5.4823,5.4837,5.4837,5.4822,5.4821,5.4821,5.4826,5.4821,5.4819,5.4817,5.4815,5.4814,5.4815,5.4815,5.4842,5.4812,5.4812,5.4813,5.4864,5.4865,5.4866,0,0,0,0,0,0,5.4823,5.4825,5.4837,5.483,5.4831,5.4823,5.4828,5.4826,5.4828,5.482,5.4818,5.4821,5.4814,5.4814,5.4828,5.4841,5.4813,5.4813,5.4863,5.4864,5.4866,5.4895,0,0,0,0,0,0,5.4823,5.4825,5.4833,5.483,5.4831,5.485,5.4829,5.4827,5.483,5.4827,5.4823,5.4822,5.4813,5.4827,5.4828,5.4842,5.4814,5.4861,5.4863,5.4865,5.4892,5.4897,5.4901,0,0,0,0,0,5.4822,5.484,5.4834,5.4836,5.4842,5.4851,5.4852,5.4842,5.4831,5.4839,5.4835,5.4822,5.484,5.4828,5.483,5.4844,5.4861,5.4863,5.4865,5.489,5.4896,5.4901,0,0,0,0,0,0,5.4844,5.484,5.4832,5.485,5.4852,5.4847,5.4857,5.4848,5.4852,5.4849,5.4836,5.4835,5.4851,5.4848,5.4836,5.4866,5.4848,5.4851,5.4867,5.4872,5.4876,5.4877,5.4814,0,0,0,0,0,5.4851,5.486,5.4855,5.4872,5.4873,5.4865,5.4869,5.4862,5.4862,5.4862,5.4858,5.4858,5.4864,5.4867,5.4872,5.4892,5.4891,5.4902,5.4906,5.491,5.4912,5.4924,5.4929,5.4874,5.4874,5.4874,0,0,5.4865,5.4864,5.487,5.4876,5.4876,5.4885,5.4866,5.4875,5.4882,5.4863,5.4876,5.4873,5.4872,5.489,5.4897,5.4888,5.4928,5.4913,5.4915,5.4916,5.4927,5.4932,5.4937,5.4875,5.4875,5.4875,0,0,5.4897,5.4896,5.4911,5.4912,5.4913,5.4908,5.4912,5.4909,5.4907,5.4921,5.4907,5.4914,5.4924,5.4925,5.4926,5.496,5.4949,5.4962,5.4984,5.4995,5.5,5.5004,5.5017,5.5022,5.4964,5.4964,5.4964,0,5.4914,5.4928,5.4919,5.4931,5.4934,5.4919,5.4934,5.4935,5.4937,5.4939,5.493,5.4943,5.4941,5.4959,5.4968,5.4969,5.4973,5.4962,5.5,5.5004,5.5007,5.502,5.5025,5.4966,5.4966,5.4966,5.4965,0,5.495,5.496,5.4972,5.4977,5.4981,5.4994,5.4987,5.4993,5.4986,5.4982,5.4996,5.4994,5.4999,5.5002,5.4994,5.502,5.5014,5.5002,5.4985,5.5014,5.5026,5.5031,5.4968,5.4968,5.4967,5.4967,0,0,5.4994,5.4996,5.5,5.5003,5.5004,5.5011,5.5024,5.503,5.5036,5.5038,5.5048,5.5058,5.5048,5.505,5.5042,5.5052,5.5081,5.5039,5.5039,5.5048,5.511,5.512,5.5126,5.5074,5.5074,5.5075,5.5111,0,5.5026,5.5049,5.5042,5.5065,5.5075,5.5062,5.5073,5.5075,5.5072,5.5079,5.5076,5.5083,5.5068,5.507,5.5079,5.5076,5.5093,5.5073,5.5084,5.5084,5.5085,5.5131,5.5141,5.5175,5.5115,5.5116,5.5116,0,5.5065,5.5072,5.5096,5.5098,5.5101,5.5112,5.5118,5.5125,5.5127,5.5124,5.5128,5.5118,5.5131,5.5113,5.5131,5.5117,5.5121,5.512,5.5121,5.5122,5.5103,5.5135,5.5185,5.5191,5.5123,5.5123,5.5122,0,5.5097,5.5111,5.5128,5.5131,5.5132,5.514,5.5141,5.5142,5.5147,5.5152,5.5155,5.5161,5.5164,5.5169,5.5161,5.5149,5.5181,5.5162,5.5179,5.5179,5.5186,5.5186,5.5239,5.5188,5.5187,5.5187,5.5187,0,5.5133,5.5149,5.5143,5.5154,5.5171,5.5163,5.5181,5.518,5.5181,5.5192,5.5179,5.5189,5.5178,5.5187,5.5181,5.5197,5.5198,5.5196,5.5195,5.5198,5.5199,5.5201,5.5199,5.5189,5.5188,5.5188,5.5188,0,5.5172,5.5168,5.5186,5.5187,5.5188,5.5201,5.5201,5.5211,5.5208,5.5221,5.5223,5.5218,5.5228,5.5221,5.523,5.5226,5.5248,5.5242,5.5248,5.5247,5.5265,5.5264,5.5322,5.533,5.5272,5.5273,5.5273,0,5.5196,5.5208,5.5211,5.5218,5.522,5.523,5.5236,5.5229,5.5235,5.5239,5.5249,5.5258,5.5265,5.5281,5.5277,5.5284,5.528,5.53,5.528,5.5284,5.5281,5.5281,5.5283,5.5304,5.5304,5.5305,5.5305,0,5.5239,5.5237,5.5246,5.5256,5.5263,5.527,5.5275,5.5281,5.5274,5.5281,5.5292,5.5297,5.5308,5.5317,5.5324,5.5323,5.5314,5.5311,5.5316,5.532,5.5323,5.5323,5.526,5.531,5.531,5.5309,5.5309,5.5309,5.5272,5.5283,5.5288,5.5299,5.5303,5.5308,5.5318,5.5317,5.5327,5.5336,5.533,5.5343,5.5346,5.5354,5.5355,5.5365,5.5357,5.5363,5.5365,5.5367,5.537,5.5321,5.5366,5.5366,5.5366,5.5366,5.5365,0,5.5316,5.5319,5.5329,5.5338,5.5347,5.5339,5.5344,5.5352,5.5364,5.5368,5.5376,5.5389,5.5399,5.5397,5.5405,5.5413,5.5409,5.5416,5.5416,5.5416,5.5376,5.5372,5.5419,5.5419,5.5419,5.5419,5.5419,5.5419,5.534,5.5359,5.5358,5.5379,5.5382,5.5396,5.54,5.5405,5.5409,5.5425,5.5433,5.5432,5.5434,5.5443,5.5451,5.5451,5.5455,5.5464,5.5461,5.5424,5.5419,5.5414,5.541,5.5464,5.5464,5.55,5.5501,5.5501]}]]